Other Surface Observations
Issued by NWS Charleston, SC

Home | Current Version | Previous Version | Text Only | Print | Product List | Glossary On
Versions: 1 2 3 4 5 6 7 8 9 10 11 12 13 14 15 16 17 18 19 20 21 22 23 24 25 26 27 28 29 30 31 32 33 34 35 36 37 38 39 40 41 42 43 44 45 46 47 48 49 50
000
SXUS52 KCHS 251910
OSOCHS

MARINE OBSERVATIONS
NATIONAL WEATHER SERVICE CHARLESTON SC
200 PM EST SUN JAN 25 2015

...DOWNTOWN CHARLESTON AND HARBOR...

CITY           SKY/WX    TMP DP  RH WIND       PRES   REMARKS
WATERFRONT PRK   N/A     54 N/A N/A SE12        N/A
FORT JOHNSON   NOT AVBL

...LAKE MOULTRIE...

CITY           SKY/WX    TMP DP  RH WIND       PRES   REMARKS
PINOPOLIS      NOT AVBL

...LAKE AND SUPPLEMENTAL COASTAL OBSERVATIONS...

STATION/POSITION TIME  TEMP    WIND        PRES    WAVE   SWELL
                       AIR SEA DIR/SP/G            HT/PER HT/PER/DIR
                 (UTC) (F)     (DEG/KT/KT) (MB)    (FT/S) (FT/S/D)
FORT PULASKI     1900   53 53  160/  5/  7 1014.0F
SAPELO ISLAND    1800   58     190/  5     1015.0F
UPR LAKE MARION  NOT AVBL
WINYAH BAY       1800   49     120/  6     1014.0S
LAKE MURRAY      1800   56      CALM  /  3 1011.5F
ACE BASIN NERRS  1800   56     170/  2     1015.0S


...C-MAN AND BUOY OBSERVATIONS...

STATION/POSITION TIME  TEMP    WIND        PRES    WAVE   SWELL
                       AIR SEA DIR/SP/G            HT/PER HT/PER/DIR
                 (UTC) (F)     (DEG/KT/KT) (MB)    (FT/S) (FT/S/D)
BUOY 41004       1900   54 70  220/  4/ 10 1014.0F   3/ 6   2/ 6
BUOY 41008       1900   50 56  180/ 10/ 12 1014.2F   1/11
FOLLY BEACH CMAN 1800   50     150/  4/  5 1015.2F
CAPERS NS BUOY   1800   52     220/  4/  6   N/A
FRIPP NS BUOY    1800   52     210/  6/  8   N/A
5E ST. MARYS GA  1900      59                N/A     1/11


STATION/POSITION TIME  TEMP    WIND        PRES    WAVE   SWELL
                       AIR SEA DIR/SP/G            HT/PER HT/PER/DIR
                 (UTC) (F)     (DEG/KT/KT) (MB)    (FT/S) (FT/S/D)
FRYING PAN BUOY  1900   52 67  360/  2/  4 1014.3F   4/ 7   3/200/ 7
BUOY 41025       1900   48 69   20/  2/  6 1013.6F   4/10   5/140/10
CAPE LOOKOUT NC  1800   50     270/  3/  4 1013.9F
BUOY 41002       1833   65 72  270/ 10/ 14 1014.1F   8/ 8   7/250/ 8
BUOY 41010       1900   66 76  270/  6/ 10 1015.3F   5/ 7
ST AUGUSTINE FL  1900   55      80/  1/  4 1016.0F

$$



USA.gov is the U.S. government's official web portal to all federal, state and local government web resources and services.